Home > Weather > Rheinberg > Past weeks

Flag for Germany Past Weather in Rheinberg, North Rhine-Westphalia, Germany — Yesterday and Last 2 Weeks

Now
72 °F

Partly cloudy.


Feels Like: 72 °F
Forecast: 61 / 70 °F
Wind: 10 mph from Southeast

Location: Duesseldorf

Current Time: Aug 28, 2016 at 2:37:57 AM

Latest Report: Aug 28, 2016 at 2:20 AM


Visibility: N/A

Pressure: 29.92 "Hg

Humidity: 78%

Dew Point: 64 °F

Location of RheinbergLocation

Past Weather in Rheinberg — Graph

°F

Rheinberg Temperature Yesterday

Maximum temperature yesterday: 91 °F (at 3:50 PM)
Minimum temperature yesterday: 66 °F (at 6:20 AM)
Average temperature yesterday: 78 °F

High & Low Weather Summary for the Past Weeks

 TemperatureHumidityPressure
High91 °F (Aug 25, 3:20 PM)100% (Aug 14, 12:50 AM)30.33 "Hg (Aug 14, 12:50 AM)
Low50 °F (Aug 18, 5:20 AM)26% (Aug 25, 3:20 PM)29.77 "Hg (Aug 18, 2:50 PM)
Average69 °F69%30.06 "Hg
* Reported Aug 13 1:20 AM — Aug 28 1:20 AM, Rheinberg, Weather by CustomWeather, © 2016

Note: Actual official high and low records may vary slightly from our data, if they occured in-between our weather recording intervals... More about our weather records

Advertising

Rheinberg Weather History for the Previous 24 Hours

Scroll right to see more
 ConditionsComfort  
Time TempWeatherWind HumidityBarometerVisibility
1:20 AM
Sun, Aug 28
68 °FPassing clouds.6 mph88%29.95 "HgN/A
12:50 AM72 °FThundershowers. Passing clouds.14 mph73%29.95 "HgN/A
12:20 AM77 °FThunderstorms. Partly cloudy.30 mph51%29.92 "HgN/A
11:50 PM
Sat, Aug 27
81 °FPassing clouds.12 mph58%29.92 "HgN/A
11:20 PM82 °FPassing clouds.10 mph55%29.92 "HgN/A
10:50 PM77 °FPassing clouds.8 mph74%29.92 "HgN/A
10:20 PM77 °FPassing clouds.7 mph79%29.92 "HgN/A
9:50 PM79 °FPassing clouds.8 mph70%29.92 "HgN/A
9:20 PM79 °FScattered clouds.9 mph70%29.95 "HgN/A
8:50 PM81 °FScattered clouds.12 mph66%29.95 "HgN/A
8:20 PM82 °FScattered clouds.12 mph62%29.95 "HgN/A
7:50 PM84 °FScattered clouds.9 mph62%29.95 "HgN/A
7:20 PM86 °FScattered showers. Scattered clouds.7 mph59%29.95 "HgN/A
6:50 PM86 °FScattered clouds.8 mph62%29.95 "HgN/A
6:20 PM91 °FSprinkles. Scattered clouds.7 mph46%29.95 "HgN/A
5:50 PM91 °FScattered clouds.9 mph46%29.95 "HgN/A
5:20 PM91 °FSunny.8 mph49%29.98 "Hg10 mi
4:50 PM90 °FScattered clouds.9 mph52%29.98 "HgN/A
4:20 PM90 °FScattered clouds.8 mph52%29.98 "HgN/A
3:50 PM91 °FPassing clouds.8 mph49%29.98 "HgN/A
3:20 PM90 °FPassing clouds.10 mph49%30.01 "HgN/A
2:50 PM88 °FPassing clouds.10 mph52%30.01 "HgN/A
2:20 PM88 °FPassing clouds.10 mph52%30.04 "HgN/A
1:50 PM84 °FPassing clouds.9 mph55%30.04 "HgN/A
1:20 PM84 °FPassing clouds.9 mph55%30.04 "HgN/A
12:50 PM82 °FPassing clouds.8 mph58%30.07 "HgN/A
12:20 PM81 °FPassing clouds.7 mph58%30.07 "HgN/A
11:50 AM79 °FPassing clouds.5 mph61%30.07 "HgN/A
11:20 AM79 °FPassing clouds.6 mph61%30.07 "HgN/A
10:50 AM77 °FPassing clouds.7 mph65%30.07 "HgN/A
10:20 AM73 °FPassing clouds.7 mph69%30.09 "HgN/A
9:50 AM73 °FPassing clouds.7 mph69%30.09 "HgN/A
9:20 AM72 °FSunny.8 mph73%30.09 "Hg10 mi
8:50 AM70 °FSunny.7 mph78%30.09 "Hg10 mi
8:20 AM68 °FSunny.8 mph78%30.09 "Hg10 mi
7:50 AM68 °FPassing clouds.7 mph78%30.07 "HgN/A
7:20 AM66 °FPassing clouds.7 mph88%30.07 "HgN/A
6:50 AM66 °FClear.7 mph88%30.07 "Hg10 mi
6:20 AM66 °FClear.5 mph88%30.07 "Hg10 mi
5:50 AM68 °FPassing clouds.5 mph83%30.07 "HgN/A
5:20 AM68 °FClear.6 mph83%30.07 "Hg10 mi
4:50 AM68 °FClear.7 mph88%30.07 "Hg10 mi
4:20 AM70 °FClear.6 mph83%30.07 "Hg10 mi
3:50 AM70 °FClear.6 mph83%30.07 "Hg10 mi
3:20 AM70 °FClear.7 mph83%30.07 "Hg10 mi
2:50 AM70 °FClear.9 mph83%30.07 "Hg10 mi
2:20 AM72 °FClear.8 mph83%30.07 "Hg10 mi
Weather by CustomWeather, © 2016

See weather overviewHow to use our weather pages